Theta_e
289 289 290 291 291 292 291 292 292 293 293 293 294 293 293 293 292 291 291 291 289 289 289 289 289 290 289 289 288 288 287 288 289 282 285 285 285 284 283 283 284 284 284
288 288 288 289 290 289 290 291 291 291 291 292 292 292 292 292 291 290 289 289 288 288 288 287 287 286 287 287 286 285 284 284 286 282 280 281 283 284 283 282 281 281 283
287 287 286 287 288 287 287 288 290 290 290 290 289 290 290 290 289 289 289 289 288 288 288 286 286 285 285 285 285 284 284 281 284 284 279 280 280 280 279 281 281 282 281
285 285 285 285 286 286 286 286 287 288 288 289 289 288 289 289 288 288 286 287 288 287 287 286 286 284 284 284 283 283 283 282 281 281 281 277 278 279 280 280 279 281 281
283 283 283 285 286 286 285 285 285 286 286 286 287 287 287 287 287 287 286 285 286 285 285 284 285 285 285 286 283 284 283 282 281 280 280 277 277 276 277 280 279 281 281
282 282 282 283 284 284 283 282 283 284 285 286 285 285 284 285 287 289 287 285 285 284 284 284 284 284 284 287 286 286 284 282 280 280 279 277 278 278 279 279 278 278 278
281 281 281 282 282 282 280 280 281 282 284 284 285 285 285 286 287 288 288 286 284 284 284 283 283 282 283 283 285 286 284 285 284 282 280 279 278 279 280 278 278 278 278
281 280 280 280 280 280 278 278 279 282 283 283 283 284 285 284 286 287 287 286 285 284 285 284 283 282 282 281 282 282 282 282 282 281 281 281 281 281 281 280 279 279 279
279 279 279 279 278 277 275 276 278 281 281 281 282 283 283 284 286 286 286 284 284 284 284 284 284 282 283 284 281 281 280 280 283 282 282 282 283 283 281 280 277 276 275
278 278 278 278 276 274 275 275 276 278 277 278 280 282 283 283 285 286 285 285 284 284 284 283 283 283 284 283 281 281 278 278 279 279 279 281 282 281 281 280 279 276 275
277 277 276 276 274 274 273 274 273 273 274 275 277 281 281 283 283 285 286 284 284 284 284 282 281 283 283 283 284 281 280 280 280 279 280 279 279 280 280 280 278 277 274
275 274 273 272 272 272 270 270 270 271 271 272 275 278 280 281 282 283 285 285 286 284 284 282 281 282 283 283 283 283 283 282 280 279 278 277 276 276 276 275 275 276 276
269 268 268 269 269 268 268 268 268 269 270 271 273 275 278 280 281 282 283 284 285 284 285 282 281 281 283 283 284 284 281 279 278 276 276 276 276 275 275 274 274 274 274
265 265 265 265 265 266 266 267 267 267 268 270 271 273 276 279 279 280 280 281 282 283 284 280 281 280 282 281 281 281 280 277 277 276 275 275 274 273 272 272 271 271 270
262 262 262 263 262 263 264 265 265 267 268 268 269 271 273 276 279 281 280 279 280 281 280 279 278 277 278 279 279 278 278 276 275 275 273 271 271 271 270 271 271 270 268
260 260 261 261 261 262 262 262 266 268 270 271 273 273 273 277 279 281 282 281 282 283 277 276 276 277 277 278 278 277 276 274 274 272 272 271 270 270 270 270 270 269 268
259 260 260 260 260 260 261 261 260 264 268 269 271 273 275 276 278 282 282 283 282 283 276 276 276 277 278 277 277 274 273 273 272 272 271 270 269 269 269 268 268 268 267
259 260 260 260 260 260 260 261 261 261 261 263 267 270 273 276 281 282 284 283 279 281 277 276 276 277 278 276 272 272 271 270 270 270 269 269 269 268 267 267 267 267 267
260 260 261 261 261 261 261 261 262 262 262 263 265 267 270 275 279 280 284 280 278 279 277 276 277 276 274 273 272 270 270 269 269 268 268 267 267 267 266 267 266 265 265
261 262 262 262 262 261 262 261 261 262 262 263 264 266 268 275 275 277 282 280 279 280 277 275 273 272 272 271 270 269 268 267 267 266 265 265 265 266 265 265 265 265 265
261 262 262 263 263 263 263 263 263 262 263 264 266 268 275 274 274 277 279 279 278 275 273 272 270 269 269 268 267 267 266 265 265 264 264 264 264 263 265 265 265 264 264
262 262 262 262 264 265 266 267 265 264 264 265 268 272 275 272 272 270 270 270 270 271 271 270 268 267 267 266 266 265 264 263 263 263 263 263 263 264 263 264 263 264 264
261 261 262 263 264 265 266 267 267 268 268 268 267 267 266 265 265 265 264 265 266 266 266 266 265 264 265 266 266 266 264 263 264 264 263 263 262 263 263 263 263 263 263
261 260 261 262 262 263 263 263 263 263 263 263 263 262 262 262 261 261 262 263 263 264 264 264 263 263 263 263 264 265 264 263 263 263 263 262 262 262 262 262 262 262 263
259 260 260 260 260 260 261 261 262 262 262 261 261 261 261 261 260 260 261 261 261 261 261 262 262 261 260 260 261 260 261 260 260 259 259 260 260 260 260 261 261 262 263
258 258 259 259 259 259 259 260 260 260 260 260 260 260 260 260 260 260 260 260 260 259 260 260 260 260 260 259 259 258 258 260 258 257 258 258 259 260 260 260 261 262 263
Wind_Speed
15 13 12 11 13 12 10 11 12 13 13 13 12 13 15 16 16 17 18 17 18 17 15 15 16 14 10 10 9 8 7 6 5 3 6 8 12 11 8 8 6 7 6
15 15 14 13 13 13 14 15 13 12 12 13 13 13 13 15 16 18 19 17 18 20 19 18 18 12 16 12 10 12 10 9 6 6 7 8 10 11 9 8 6 6 6
14 13 13 14 14 14 15 15 15 14 13 12 12 13 14 15 16 17 18 19 19 19 19 19 19 17 17 13 14 12 10 7 9 8 5 5 4 7 8 8 8 8 7
14 14 14 13 13 14 14 14 14 14 14 14 13 12 14 15 15 15 16 18 19 18 19 19 19 20 20 18 15 14 10 9 8 8 8 6 7 7 7 8 8 7 7
13 14 14 13 13 13 13 12 13 13 11 12 14 13 11 13 12 15 15 17 19 18 18 17 19 19 25 21 14 15 14 11 8 9 8 7 8 7 11 8 7 5 6
11 13 13 12 12 12 13 14 13 12 12 12 12 13 14 10 18 21 19 17 18 19 19 19 18 20 21 27 29 26 23 18 15 11 9 11 12 9 9 8 6 4 2
12 10 11 11 12 12 13 14 13 13 12 13 13 12 14 16 21 21 24 18 16 18 20 18 17 15 20 20 28 27 28 29 24 16 16 13 11 10 11 10 8 6 4
12 13 13 12 13 13 15 15 15 14 14 13 14 14 14 12 21 24 25 18 19 20 20 20 19 20 20 21 20 20 20 19 19 12 12 10 8 10 10 8 8 6 4
13 12 12 12 14 15 16 16 15 15 15 16 16 16 15 16 21 23 20 15 19 21 18 18 19 20 25 34 21 21 18 16 21 23 18 17 17 19 14 9 8 7 5
14 14 13 13 12 14 17 18 16 15 17 15 17 16 18 18 23 23 20 13 17 15 16 17 23 20 25 32 20 20 19 19 18 17 14 17 18 16 19 11 9 9 6
13 14 16 15 15 15 16 16 17 18 18 18 19 17 18 17 18 25 24 15 14 13 13 12 12 28 28 31 30 18 21 17 23 16 13 11 11 11 9 9 10 9 9
14 16 16 17 14 14 18 17 18 17 18 20 18 18 14 15 20 24 27 27 24 16 14 12 11 24 29 30 28 27 28 25 14 14 13 12 11 9 9 8 10 9 8
18 18 18 18 17 17 18 18 15 16 15 17 15 16 14 11 12 23 26 27 27 20 11 14 20 25 29 28 34 31 27 14 14 13 14 12 10 9 10 9 8 8 7
21 20 18 18 18 17 14 14 14 14 14 14 15 15 15 12 11 9 9 12 22 18 17 14 17 19 23 20 17 20 14 12 13 13 12 10 8 9 8 8 8 7 5
20 19 18 15 17 16 15 14 14 16 17 15 15 14 15 15 12 16 14 9 9 13 10 9 11 11 11 12 12 13 12 11 11 10 11 11 10 9 8 9 8 7 6
18 15 14 14 14 14 15 15 24 31 35 36 38 30 18 32 37 30 25 23 25 24 11 11 12 12 13 13 13 13 11 14 10 11 10 10 10 9 9 8 6 7 7
18 18 14 16 14 14 14 15 16 16 29 32 33 34 36 35 36 32 28 24 24 22 12 12 12 12 12 11 10 11 11 11 12 10 10 10 10 9 10 8 8 7 6
18 23 15 14 14 14 14 15 14 14 15 14 20 25 28 31 31 23 25 21 11 17 12 11 11 11 11 11 10 9 9 10 10 10 10 9 9 9 9 8 7 6 5
17 14 14 14 14 16 15 15 14 15 14 14 13 19 19 27 23 22 23 11 9 10 11 10 9 9 10 9 10 9 11 10 10 10 10 9 9 9 8 7 6 6 5
16 20 18 14 14 14 13 13 13 13 13 12 11 12 12 11 9 9 10 9 8 7 9 9 8 9 9 9 9 10 10 10 9 9 8 8 8 7 7 7 6 6 5
13 14 18 14 13 13 13 13 11 11 11 11 12 13 19 9 8 9 6 7 4 7 9 10 10 9 9 9 9 10 10 10 9 9 8 7 7 7 6 5 5 4 4
12 12 12 12 12 12 12 10 9 10 11 11 11 9 14 6 2 7 8 8 8 9 8 9 9 9 9 9 9 10 11 11 10 9 8 8 7 7 7 6 5 5 5
11 12 12 11 10 13 10 10 7 7 6 6 7 5 6 6 5 8 8 8 8 7 7 8 10 9 8 8 8 9 11 10 9 9 9 8 7 7 6 6 5 5 5
11 11 11 10 9 10 9 9 9 10 8 7 7 7 7 7 7 9 8 8 8 8 8 8 8 11 11 9 8 8 7 8 7 8 9 8 7 7 5 4 4 5 5
10 10 10 10 9 9 9 10 10 9 9 8 8 8 8 9 9 9 9 8 8 9 10 9 8 12 13 14 11 11 11 12 9 9 5 6 6 7 5 4 4 5 8
10 11 9 8 8 9 9 9 9 9 9 8 8 9 9 9 9 9 9 10 9 10 10 8 10 13 13 10 10 11 10 10 9 8 6 5 5 5 5 6 8 6 8
Wind_Direction
11 10 9 9 6 358 338 316 300 289 275 253 239 227 222 218 217 221 222 215 214 211 208 209 208 201 198 200 194 194 191 183 181 149 183 175 189 194 202 215 227 235 237
358 357 358 0 2 359 354 348 331 305 288 270 255 242 231 224 219 219 221 221 216 214 208 207 209 196 204 197 194 192 187 180 159 157 182 181 194 205 221 221 226 238 241
352 356 353 354 355 355 349 343 338 327 307 281 256 253 243 232 226 223 224 223 222 222 217 213 208 198 202 198 197 195 192 181 181 146 149 176 189 194 207 228 232 237 241
348 348 350 347 346 344 341 337 333 330 313 300 278 250 253 246 235 227 226 230 227 224 221 216 213 207 206 197 198 197 189 184 186 171 150 165 182 181 204 207 208 219 232
340 338 339 336 334 334 336 334 329 323 313 296 286 277 256 249 246 233 228 227 229 226 224 219 219 213 210 203 194 191 185 183 193 194 177 168 180 175 198 185 206 213 245
323 323 324 326 325 329 329 327 323 317 313 307 291 280 270 256 247 239 234 234 226 227 224 220 216 212 207 204 202 196 191 181 186 196 199 195 192 189 179 182 177 177 233
310 306 309 311 313 319 321 316 315 311 311 304 297 275 267 265 262 251 240 238 231 230 227 223 215 214 202 199 204 199 201 200 192 189 196 198 188 186 173 174 174 175 201
297 307 312 312 311 314 313 311 311 309 307 307 302 291 276 260 256 256 253 243 238 235 232 224 219 214 206 196 191 195 198 200 194 188 199 186 183 171 182 172 164 188 231
280 280 288 301 303 308 305 304 305 302 303 304 294 290 281 273 261 251 248 243 239 238 231 228 227 223 207 199 190 195 192 194 191 188 187 180 168 172 168 152 160 168 215
286 286 286 286 287 294 300 301 300 296 292 290 287 281 275 274 269 259 249 239 239 234 230 227 221 223 212 203 197 193 191 188 177 174 178 176 174 179 182 179 162 181 181
287 285 286 286 285 285 286 288 295 294 290 284 281 273 271 264 261 255 245 243 243 238 232 221 218 215 214 205 198 202 204 176 182 173 168 168 174 178 176 171 179 185 184
297 289 286 287 285 286 283 283 282 282 281 282 281 278 266 262 252 250 246 236 245 237 234 220 213 211 213 206 205 207 203 183 176 170 170 169 168 171 171 171 186 184 203
301 293 290 288 285 282 280 279 279 274 270 273 274 274 271 266 258 252 248 246 242 249 239 206 196 199 211 211 215 198 198 179 177 173 176 173 174 161 154 168 166 185 206
296 295 296 292 290 285 279 275 272 270 270 269 269 271 273 265 260 248 239 244 245 245 232 201 197 193 207 204 210 189 191 181 180 167 165 152 135 142 162 157 167 176 203
297 298 297 292 287 285 275 273 269 266 267 272 269 276 283 276 262 261 249 239 232 224 198 183 188 187 194 203 191 177 177 172 170 154 144 140 146 155 160 167 160 166 205
293 292 290 291 287 283 282 279 270 275 276 273 272 267 265 264 272 265 260 255 248 234 176 187 188 183 191 190 186 173 168 160 156 148 146 148 150 157 158 161 160 185 197
287 289 287 284 282 283 281 281 285 280 278 279 278 275 270 270 269 258 249 246 248 235 190 191 197 184 181 183 174 163 159 157 148 149 143 145 149 148 158 161 176 181 190
289 287 283 281 279 277 275 275 276 280 284 281 276 275 275 278 266 265 236 235 236 235 191 189 190 181 176 161 148 154 143 143 144 139 137 143 146 146 158 166 173 181 186
293 288 286 283 279 276 276 274 272 273 274 278 284 282 282 282 279 271 241 217 224 233 180 183 178 161 155 149 149 146 148 147 141 138 137 142 144 151 157 157 164 174 183
290 289 285 283 281 278 274 271 271 271 273 274 273 275 280 269 269 268 217 196 215 235 161 146 131 132 132 139 136 136 130 132 131 128 129 136 142 150 152 158 164 177 197
292 293 294 288 283 279 275 270 265 267 270 271 272 270 265 275 270 275 179 182 184 126 131 128 121 119 125 130 132 133 133 132 130 127 132 137 145 151 151 162 172 190 217
304 303 301 298 297 296 296 266 257 258 263 267 272 287 307 344 31 77 84 89 96 110 123 129 125 127 132 137 138 138 137 135 130 133 139 145 154 157 162 171 185 204 225
311 311 311 315 320 324 333 345 331 300 310 352 0 16 26 50 45 77 80 83 89 93 98 106 111 111 111 117 128 136 135 140 143 142 146 154 162 167 174 183 190 201 226
322 326 331 334 341 345 353 358 4 17 23 24 27 35 44 53 61 67 71 79 83 84 87 94 104 116 115 109 107 103 105 113 122 138 146 153 154 162 178 190 205 225 247
333 336 344 349 350 353 358 8 14 20 26 33 39 46 54 62 67 67 67 71 76 81 82 87 89 100 98 105 108 108 120 121 125 133 135 140 157 174 189 208 226 242 252
345 349 349 353 5 8 8 12 17 21 29 38 47 52 56 59 62 65 66 70 71 72 80 81 90 98 102 105 117 121 131 137 138 144 145 165 181 197 203 222 237 247 260